"TOA5","MOW","CPU:UNC_MeetingWaters","DataHourly"
"TIMESTAMP","SondeTempC","SpCond","DOSat","DOmg","pH","Turb","BattVolt_Min"
"TS","","","","","","",""
"","Smp","Smp","Smp","Smp","Smp","Smp","Min"
"2005-07-01 00:00:00",23.0,0.00200000009499,97.5,8.35999965668,9.11999988556,11.3999996185,12.9300003052
"2005-07-01 01:00:00",22.7600002289,0.00200000009499,99.0999984741,8.53999996185,8.73999977112,11.3999996185,12.9099998474
"2005-07-01 02:00:00",22.6200008392,0.00200000009499,98.0,8.47000026703,8.64999961853,11.8999996185,12.8900003433
"2005-07-01 03:00:00",22.3899993896,0.00200000009499,100.199996948,8.68999958038,8.60000038147,11.8999996185,12.8800001144
"2005-07-01 04:00:00",22.2299995422,0.00200000009499,99.3000030518,8.64999961853,8.57999992371,10.8999996185,12.8599996567
"2005-07-01 05:00:00",22.0100002289,0.00200000009499,97.4000015259,8.51000022888,8.63000011444,11.8999996185,12.8400001526
"2005-07-01 06:00:00",21.7999992371,0.00200000009499,99.0,8.68999958038,9.10000038147,10.3000001907,12.8400001526
"2005-07-01 07:00:00",21.7700004578,0.00200000009499,101.199996948,8.89000034332,8.64999961853,9.39999961853,12.8299999237
"2005-07-01 08:00:00",21.8899993896,0.00200000009499,102.199996948,8.94999980927,8.68000030518,9.10000038147,12.8599996567
"2005-07-01 09:00:00",22.1700000763,0.00200000009499,105.0,9.14999961853,8.71000003815,8.80000019073,12.9499998093
"2005-07-01 10:00:00",22.7099990845,0.00200000009499,109.699996948,9.46000003815,8.69999980927,8.39999961853,13.1800003052
"2005-07-01 11:00:00",23.0699996948,0.00200000009499,116.199996948,9.94999980927,8.81000041962,8.60000038147,13.5100002289
"2005-07-01 12:00:00",23.0799999237,0.00300000002608,113.5,9.72000026703,8.77000045776,9.10000038147,14.1700000763
"2005-07-01 13:00:00",24.6200008392,0.00200000009499,119.900001526,9.97999954224,9.15999984741,11.5,14.1000003815
"2005-07-01 14:00:00",25.3600006104,0.00200000009499,127.0,10.4200000763,9.18999958038,15.8999996185,13.8699998856
"2005-07-01 15:00:00",25.7299995422,0.0010000000475,123.699996948,10.0799999237,9.46000003815,17.7000007629,13.0799999237
"2005-07-01 16:00:00",25.75,0.0010000000475,119.900001526,9.77000045776,9.43000030518,23.3999996185,13.0600004196
"2005-07-01 17:00:00",25.2299995422,0.0010000000475,107.599998474,8.85999965668,9.18999958038,26.0,13.8500003815
"2005-07-01 18:00:00",24.8099994659,0.0,105.300003052,8.73999977112,9.01000022888,21.7000007629,13.1400003433
"2005-07-01 19:00:00",24.7600002289,0.0,100.699996948,8.35999965668,8.90999984741,18.5,13.0
"2005-07-01 20:00:00",24.5300006866,0.0010000000475,97.8000030518,8.15999984741,8.88000011444,15.8999996185,12.9799995422
"2005-07-01 21:00:00",24.4300003052,0.0,94.6999969482,7.90999984741,8.77999973297,13.6000003815,12.970000267
"2005-07-01 22:00:00",25.2900009155,0.130999997258,108.099998474,8.88000011444,8.97999954224,1392.0,12.9499998093
"2005-07-01 23:00:00",24.7600002289,0.15000000596,97.4000015259,8.07999992371,8.60000038147,765.0,12.9200000763
"2005-07-02 00:00:00",24.2800006866,0.182999998331,93.1999969482,7.80999994278,8.26000022888,458.0,12.8900003433
"2005-07-02 01:00:00",23.9099998474,0.216999992728,91.3000030518,7.69999980927,8.06000041962,360.799987793,12.8800001144
"2005-07-02 02:00:00",24.2299995422,0.189999997616,94.0,7.86999988556,8.06000041962,339.600006104,12.8599996567
"2005-07-02 03:00:00",23.5599994659,0.167999997735,101.199996948,8.57999992371,8.06999969482,428.600006104,12.8400001526
"2005-07-02 04:00:00",23.5300006866,0.140000000596,95.5,8.10999965668,7.96000003815,261.600006104,12.8299999237
"2005-07-02 05:00:00",23.2800006866,0.165000006557,94.0,8.02000045776,7.80000019073,178.5,12.8199996948
"2005-07-02 06:00:00",23.0,0.197999998927,93.6999969482,8.02999973297,7.71000003815,149.100006104,12.8000001907
"2005-07-02 07:00:00",22.7700004578,0.16400000453,94.0,8.10000038147,7.71000003815,129.699996948,12.8000001907
"2005-07-02 08:00:00",22.6100006104,0.135000005364,94.9000015259,8.19999980927,7.73999977112,98.6999969482,12.8999996185
"2005-07-02 09:00:00",22.6100006104,0.136999994516,96.5,8.32999992371,7.80000019073,76.6999969482,12.9899997711
"2005-07-02 10:00:00",22.6599998474,0.136999994516,96.6999969482,8.34000015259,7.86000013351,61.2000007629,12.9899997711
"2005-07-02 11:00:00",22.7999992371,0.138999998569,98.9000015259,8.51000022888,7.92999982834,53.4000015259,13.529999733
"2005-07-02 12:00:00",23.3999996185,0.0120000001043,101.800003052,8.67000007629,7.98999977112,41.4000015259,14.0399999619
"2005-07-02 13:00:00",23.9300003052,0.00700000021607,103.599998474,8.72999954224,8.06999969482,33.7999992371,13.9899997711
"2005-07-02 14:00:00",24.25,0.00600000005215,103.699996948,8.68999958038,8.13000011444,24.5,13.970000267
"2005-07-02 15:00:00",24.2800006866,0.00499999988824,102.300003052,8.56999969482,8.18999958038,21.6000003815,13.970000267
"2005-07-02 16:00:00",24.2099990845,0.00499999988824,102.199996948,8.56999969482,8.22000026703,20.0,13.9799995422
"2005-07-02 17:00:00",24.1399993896,0.00499999988824,102.199996948,8.57999992371,8.23999977112,15.3000001907,13.9899997711
"2005-07-02 18:00:00",24.1399993896,0.00499999988824,101.300003052,8.5,8.27000045776,13.5,13.0799999237
"2005-07-02 19:00:00",23.9200000763,0.00499999988824,99.5999984741,8.39999961853,8.25,12.0,13.0200004578
"2005-07-02 20:00:00",23.7399997711,0.00499999988824,98.1999969482,8.31000041962,8.30000019073,11.3999996185,12.9899997711
"2005-07-02 21:00:00",23.4599990845,0.00499999988824,97.6999969482,8.31000041962,8.31000041962,10.8000001907,12.9799995422
"2005-07-02 22:00:00",23.2299995422,0.00499999988824,97.1999969482,8.31000041962,8.32999992371,10.3999996185,12.9600000381
"2005-07-02 23:00:00",23.0599994659,0.00499999988824,97.5,8.35000038147,8.35000038147,11.3999996185,12.9300003052
"2005-07-03 00:00:00",22.9099998474,0.00499999988824,98.1999969482,8.43999958038,8.35000038147,10.1000003815,12.9099998474
"2005-07-03 01:00:00",22.7299995422,0.00499999988824,98.8000030518,8.52000045776,8.35000038147,9.69999980927,12.8900003433
"2005-07-03 02:00:00",22.5699996948,0.00499999988824,99.0999984741,8.56999969482,8.39999961853,9.80000019073,12.8800001144
"2005-07-03 03:00:00",22.4099998474,0.00499999988824,99.5,8.63000011444,8.43000030518,9.39999961853,12.8599996567
"2005-07-03 04:00:00",22.2700004578,0.00600000005215,99.5999984741,8.67000007629,8.43999958038,9.69999980927,12.8299999237
"2005-07-03 05:00:00",22.1100006104,0.00600000005215,100.300003052,8.75,8.43999958038,9.5,12.8100004196
"2005-07-03 06:00:00",22.0400009155,0.00700000021607,100.300003052,8.76000022888,8.46000003815,9.80000019073,12.8000001907
"2005-07-03 07:00:00",21.9200000763,0.00700000021607,100.699996948,8.81999969482,8.47000026703,10.0,12.7899999619
"2005-07-03 08:00:00",21.8899993896,0.00600000005215,101.0,8.85000038147,8.48999977112,9.80000019073,12.8199996948
"2005-07-03 09:00:00",21.9099998474,0.00600000005215,101.300003052,8.86999988556,8.51000022888,9.60000038147,12.8100004196
"2005-07-03 10:00:00",21.9599990845,0.00499999988824,102.400001526,8.96000003815,8.51000022888,9.69999980927,12.9200000763
"2005-07-03 11:00:00",22.0200004578,0.00499999988824,102.5,8.96000003815,8.5,9.30000019073,13.0399999619
"2005-07-03 12:00:00",22.3999996185,0.00499999988824,105.699996948,9.17000007629,8.56999969482,9.69999980927,13.4399995804
"2005-07-03 13:00:00",22.7099990845,0.00499999988824,107.300003052,9.26000022888,8.57999992371,9.10000038147,13.3100004196
"2005-07-03 14:00:00",22.8899993896,0.00499999988824,109.099998474,9.38000011444,8.60999965668,9.19999980927,14.0500001907
"2005-07-03 15:00:00",23.1000003815,0.00499999988824,106.900001526,9.14999961853,8.57999992371,9.19999980927,13.2700004578
"2005-07-03 16:00:00",23.4300003052,0.00499999988824,107.699996948,9.15999984741,8.61999988556,8.89999961853,14.0
"2005-07-03 17:00:00",23.4799995422,0.00400000018999,106.800003052,9.07999992371,8.60000038147,9.0,13.9899997711
"2005-07-03 18:00:00",23.4500007629,0.00400000018999,105.199996948,8.94999980927,8.59000015259,8.60000038147,14.0399999619
"2005-07-03 19:00:00",23.3999996185,0.00400000018999,103.699996948,8.82999992371,8.43999958038,8.30000019073,13.0900001526
"2005-07-03 20:00:00",23.2399997711,0.00400000018999,102.0,8.71000003815,8.31999969482,8.39999961853,13.0100002289
"2005-07-03 21:00:00",23.0200004578,0.00400000018999,100.900001526,8.64999961853,8.22999954224,8.19999980927,12.9899997711
"2005-07-03 22:00:00",22.8899993896,0.00400000018999,99.0999984741,8.52000045776,8.22999954224,8.0,12.970000267
"2005-07-03 23:00:00",22.7800006866,0.00400000018999,101.0,8.69999980927,8.32999992371,8.30000019073,12.9499998093
"2005-07-04 00:00:00",22.6499996185,0.00400000018999,101.199996948,8.73999977112,8.38000011444,8.0,12.9300003052
"2005-07-04 01:00:00",22.5699996948,0.00400000018999,101.099998474,8.75,8.39999961853,8.0,12.9099998474
"2005-07-04 02:00:00",22.4599990845,0.00400000018999,101.5,8.80000019073,8.42000007629,8.30000019073,12.8999996185
"2005-07-04 03:00:00",22.3500003815,0.00400000018999,100.900001526,8.77000045776,8.43000030518,7.80000019073,12.8800001144
"2005-07-04 04:00:00",22.25,0.00499999988824,101.699996948,8.85000038147,8.42000007629,9.60000038147,12.8599996567
"2005-07-04 05:00:00",23.7999992371,0.0590000003576,106.099998474,8.96000003815,8.64999961853,823.0,12.8400001526
"2005-07-04 06:00:00",23.3899993896,0.119999997318,101.0,8.60000038147,8.26000022888,583.200012207,12.8199996948
"2005-07-04 07:00:00",23.1399993896,0.157000005245,99.3000030518,8.5,8.09000015259,343.100006104,12.8000001907
"2005-07-04 08:00:00",22.9899997711,0.193000003695,99.6999969482,8.55000019073,7.98999977112,222.899993896,12.8199996948
"2005-07-04 09:00:00",22.8999996185,0.224000006914,100.099998474,8.60000038147,7.96999979019,165.899993896,12.9399995804
"2005-07-04 10:00:00",22.9599990845,0.247999995947,101.5,8.71000003815,8.0,118.800003052,13.2299995422
"2005-07-04 11:00:00",23.1399993896,0.206000000238,103.300003052,8.82999992371,8.06999969482,94.0999984741,13.4799995422
"2005-07-04 12:00:00",23.4400005341,0.165000006557,103.900001526,8.84000015259,8.13000011444,71.3000030518,13.4600000381
"2005-07-04 13:00:00",23.4899997711,0.158000007272,103.199996948,8.77000045776,8.17000007629,53.4000015259,13.279999733
"2005-07-04 14:00:00",23.4599990845,0.162000000477,103.599998474,8.81000041962,8.21000003815,39.4000015259,14.0600004196
"2005-07-04 15:00:00",23.7999992371,0.16400000453,106.699996948,9.01000022888,8.28999996185,29.3999996185,14.0100002289
"2005-07-04 16:00:00",24.0,0.170000001788,106.5,8.96000003815,8.34000015259,24.7000007629,13.9600000381
"2005-07-04 17:00:00",23.9599990845,0.172000005841,105.099998474,8.85000038147,8.38000011444,20.8999996185,13.9899997711
"2005-07-04 18:00:00",23.8299999237,0.171000003815,104.0,8.77999973297,8.39999961853,18.7000007629,14.0200004578
"2005-07-04 19:00:00",23.7199993134,0.168999999762,102.900001526,8.69999980927,8.42000007629,17.3999996185,13.029999733
"2005-07-04 20:00:00",23.5699996948,0.133000001311,102.0,8.65999984741,8.39999961853,15.8999996185,13.0
"2005-07-04 21:00:00",23.4099998474,0.0120000001043,100.800003052,8.57999992371,8.31999969482,15.1000003815,12.9899997711
"2005-07-04 22:00:00",23.2600002289,0.00999999977648,101.5,8.67000007629,8.36999988556,13.6000003815,12.970000267
"2005-07-04 23:00:00",23.0900001526,0.00499999988824,101.800003052,8.72000026703,8.39000034332,13.3999996185,12.9399995804
"2005-07-05 00:00:00",22.9699993134,0.00400000018999,101.400001526,8.71000003815,8.43999958038,12.1999998093,12.9200000763
"2005-07-05 01:00:00",22.7999992371,0.00400000018999,102.199996948,8.80000019073,8.43000030518,12.1999998093,12.8999996185
"2005-07-05 02:00:00",22.7199993134,0.00400000018999,101.5,8.76000022888,8.39999961853,11.3999996185,12.8800001144
"2005-07-05 03:00:00",22.5799999237,0.00400000018999,101.699996948,8.80000019073,8.42000007629,10.8999996185,12.8599996567
"2005-07-05 04:00:00",22.3999996185,0.00400000018999,102.400001526,8.89000034332,8.43999958038,10.6000003815,12.8400001526
"2005-07-05 05:00:00",22.2800006866,0.00400000018999,102.199996948,8.89000034332,8.47000026703,10.6999998093,12.8199996948
"2005-07-05 06:00:00",22.1599998474,0.00400000018999,102.400001526,8.92000007629,8.48999977112,10.1999998093,12.8000001907
"2005-07-05 07:00:00",22.0799999237,0.00700000021607,103.0,8.98999977112,8.51000022888,10.3999996185,12.779999733
"2005-07-05 08:00:00",22.0699996948,0.00899999961257,104.300003052,9.10999965668,8.52999973297,9.89999961853,12.8299999237
"2005-07-05 09:00:00",22.0699996948,0.194999992847,105.699996948,9.22999954224,8.52999973297,13.8000001907,12.9499998093
"2005-07-05 10:00:00",22.25,0.179000005126,107.699996948,9.36999988556,8.57999992371,13.3000001907,13.2100000381
"2005-07-05 11:00:00",22.8299999237,0.476999998093,107.300003052,9.22999954224,8.64000034332,186.100006104,13.5900001526
"2005-07-05 12:00:00",23.5499992371,0.421000003815,104.699996948,8.88000011444,8.72000026703,216.199996948,13.5399999619
"2005-07-05 13:00:00",24.4300003052,0.16400000453,105.699996948,8.82999992371,8.80000019073,70.4000015259,13.9899997711
"2005-07-05 14:00:00",25.3999996185,0.00499999988824,106.099998474,8.69999980927,8.73999977112,36.0,13.9399995804
"2005-07-05 15:00:00",25.5200004578,0.00400000018999,104.199996948,8.52999973297,8.63000011444,66.1999969482,13.8800001144
"2005-07-05 16:00:00",25.7399997711,0.00400000018999,103.400001526,8.43000030518,8.57999992371,57.9000015259,13.8699998856
"2005-07-05 17:00:00",25.5699996948,0.00300000002608,102.800003052,8.40999984741,8.53999996185,36.2000007629,13.8699998856
"2005-07-05 18:00:00",25.1800003052,0.00400000018999,102.199996948,8.42000007629,8.48999977112,26.6000003815,13.1899995804
"2005-07-05 19:00:00",24.9599990845,0.00300000002608,101.599998474,8.39999961853,8.42000007629,33.2000007629,13.0200004578
"2005-07-05 20:00:00",24.7000007629,0.00300000002608,100.199996948,8.32999992371,8.35999965668,26.7999992371,12.9899997711
"2005-07-05 21:00:00",24.4500007629,0.00400000018999,100.699996948,8.40999984741,8.35000038147,25.7999992371,12.9799995422
"2005-07-05 22:00:00",24.0499992371,0.00400000018999,99.9000015259,8.39999961853,8.44999980927,29.2999992371,12.9499998093
"2005-07-05 23:00:00",23.7700004578,0.00600000005215,102.0,8.63000011444,8.51000022888,43.7999992371,12.9300003052
"2005-07-06 00:00:00",23.4899997711,0.00400000018999,102.699996948,8.72999954224,8.55000019073,45.2000007629,12.8999996185
"2005-07-06 01:00:00",23.2800006866,0.00400000018999,102.599998474,8.76000022888,8.56999969482,31.8999996185,12.8900003433
"2005-07-06 02:00:00",23.0300006866,0.00400000018999,102.699996948,8.80000019073,8.57999992371,22.8999996185,12.8699998856
"2005-07-06 03:00:00",22.8099994659,0.00300000002608,102.400001526,8.81999969482,8.60999965668,26.3999996185,12.8500003815
"2005-07-06 04:00:00",22.6200008392,0.00300000002608,102.599998474,8.86999988556,8.63000011444,21.2000007629,12.8299999237
"2005-07-06 05:00:00",22.4799995422,0.00300000002608,102.699996948,8.89999961853,8.61999988556,15.6000003815,12.8000001907
"2005-07-06 06:00:00",22.3500003815,0.00400000018999,102.599998474,8.90999984741,8.63000011444,14.6000003815,12.7899999619
"2005-07-06 07:00:00",22.2299995422,0.00400000018999,103.199996948,8.97999954224,8.64000034332,12.8000001907,12.779999733
"2005-07-06 08:00:00",22.2099990845,0.00600000005215,103.5,9.01000022888,8.64000034332,11.8000001907,12.8000001907
"2005-07-06 09:00:00",22.2800006866,0.00400000018999,104.900001526,9.11999988556,8.61999988556,12.3000001907,12.8299999237
"2005-07-06 10:00:00",22.5900001526,0.00300000002608,106.199996948,9.18999958038,8.64000034332,11.5,12.9499998093
"2005-07-06 11:00:00",22.7600002289,0.28900000453,108.400001526,9.32999992371,8.69999980927,47.0,13.6800003052
"2005-07-06 12:00:00",23.9099998474,0.00400000018999,110.099998474,9.27999973297,8.81000041962,79.4000015259,13.8900003433
"2005-07-06 13:00:00",25.1700000763,0.00200000009499,111.0,9.14999961853,8.77999973297,88.8000030518,13.8900003433
"2005-07-06 14:00:00",25.4400005341,0.00200000009499,108.699996948,8.90999984741,8.73999977112,68.3000030518,13.8800001144
"2005-07-06 15:00:00",25.4200000763,0.0010000000475,107.0,8.77000045776,8.71000003815,34.2999992371,13.8800001144
"2005-07-06 16:00:00",25.5599994659,0.00200000009499,104.5,8.55000019073,9.14999961853,23.2000007629,13.9399995804
"2005-07-06 17:00:00",24.7700004578,0.00200000009499,105.0,8.71000003815,8.57999992371,17.6000003815,13.1000003815
"2005-07-06 18:00:00",24.7999992371,0.00200000009499,103.900001526,8.61999988556,8.43000030518,13.3000001907,13.1099996567
"2005-07-06 19:00:00",24.4400005341,0.00200000009499,104.699996948,8.73999977112,8.47999954224,12.3999996185,13.0600004196
"2005-07-06 20:00:00",24.4099998474,0.00200000009499,100.400001526,8.39000034332,8.43999958038,13.1000003815,12.9899997711
"2005-07-06 21:00:00",24.0599994659,0.00200000009499,99.6999969482,8.38000011444,8.35999965668,14.6999998093,12.9899997711
"2005-07-06 22:00:00",23.7800006866,0.00200000009499,102.0,8.61999988556,8.34000015259,52.5999984741,12.9600000381
"2005-07-06 23:00:00",23.5699996948,0.00200000009499,102.300003052,8.68000030518,8.47000026703,43.5,12.9499998093
"2005-07-07 00:00:00",23.4400005341,0.00200000009499,102.099998474,8.68999958038,8.64999961853,21.6000003815,12.9200000763
"2005-07-07 01:00:00",23.3099994659,0.00200000009499,101.900001526,8.68999958038,9.15999984741,15.5,12.9099998474
"2005-07-07 02:00:00",23.1399993896,0.00200000009499,102.199996948,8.73999977112,9.28999996185,12.5,12.8900003433
"2005-07-07 03:00:00",22.9500007629,0.00200000009499,102.800003052,8.82999992371,9.18000030518,11.5,12.8800001144
"2005-07-07 04:00:00",22.8400001526,0.00200000009499,102.900001526,8.85000038147,9.02999973297,10.5,12.8500003815
"2005-07-07 05:00:00",22.7199993134,0.00200000009499,103.300003052,8.90999984741,8.93000030518,10.8999996185,12.8299999237
"2005-07-07 06:00:00",22.5699996948,0.00200000009499,103.900001526,8.97999954224,8.85000038147,10.3000001907,12.8100004196
"2005-07-07 07:00:00",22.4799995422,0.00200000009499,103.5,8.97000026703,8.81000041962,9.69999980927,12.8000001907
"2005-07-07 08:00:00",22.4699993134,0.00300000002608,104.900001526,9.09000015259,8.78999996185,10.3000001907,12.8400001526
"2005-07-07 09:00:00",22.5499992371,0.00300000002608,106.199996948,9.18999958038,8.77000045776,9.69999980927,12.970000267
"2005-07-07 10:00:00",22.6499996185,0.00200000009499,107.599998474,9.28999996185,8.77000045776,9.60000038147,13.0399999619
"2005-07-07 11:00:00",23.4799995422,0.00200000009499,111.699996948,9.5,8.85000038147,8.89999961853,13.4200000763
"2005-07-07 12:00:00",23.7900009155,0.00200000009499,109.699996948,9.27000045776,8.85999965668,9.60000038147,13.9899997711
"2005-07-07 13:00:00",24.6399993896,0.00200000009499,111.699996948,9.28999996185,8.93999958038,10.8999996185,13.9399995804
"2005-07-07 14:00:00",25.1499996185,0.0010000000475,111.300003052,9.17000007629,8.94999980927,106.800003052,13.9399995804
"2005-07-07 15:00:00",25.1800003052,0.0010000000475,109.699996948,9.03999996185,8.85000038147,89.1999969482,13.9399995804
"2005-07-07 16:00:00",25.0599994659,0.0010000000475,109.0,9.0,8.85000038147,39.0999984741,13.8900003433
"2005-07-07 17:00:00",24.7199993134,0.0010000000475,107.699996948,8.94999980927,8.81000041962,26.6000003815,13.8800001144
"2005-07-07 18:00:00",24.4099998474,0.0010000000475,105.0,8.77999973297,8.72999954224,15.8999996185,13.0200004578
"2005-07-07 19:00:00",24.1499996185,0.0010000000475,103.5,8.68999958038,8.75,17.2999992371,13.0
"2005-07-07 20:00:00",26.4099998474,0.209999993443,103.199996948,8.31000041962,9.0,127.199996948,12.970000267
"2005-07-07 21:00:00",24.8600006104,0.0949999988079,106.5,8.81999969482,9.22000026703,1393.0,12.9499998093
"2005-07-07 22:00:00",24.4500007629,0.0500000007451,109.900001526,9.17000007629,8.72999954224,1206.0,12.9300003052
"2005-07-07 23:00:00",24.3700008392,0.126000002027,105.300003052,8.80000019073,8.28999996185,981.0,12.9099998474
"2005-07-08 00:00:00",24.1399993896,0.182999998331,104.199996948,8.75,8.07999992371,750.0,12.8800001144
"2005-07-08 01:00:00",23.9099998474,0.219999998808,103.699996948,8.73999977112,8.05000019073,421.299987793,12.8599996567
"2005-07-08 02:00:00",23.7000007629,0.240999996662,103.099998474,8.72000026703,8.06999969482,346.899993896,12.8400001526
"2005-07-08 03:00:00",23.5200004578,0.250999987125,103.099998474,8.75,8.10000038147,276.600006104,12.8199996948
"2005-07-08 04:00:00",23.3500003815,0.259999990463,103.099998474,8.77999973297,8.13000011444,217.300003052,12.7899999619
"2005-07-08 05:00:00",23.1800003052,0.268000006676,102.300003052,8.73999977112,8.17000007629,178.699996948,12.779999733
"2005-07-08 06:00:00",23.0100002289,0.270999997854,100.5,8.60999965668,8.21000003815,155.0,12.779999733
"2005-07-08 07:00:00",22.8299999237,0.27500000596,103.400001526,8.89000034332,8.23999977112,122.599998474,12.779999733
"2005-07-08 08:00:00",22.7099990845,0.25799998641,104.199996948,8.97999954224,8.27000045776,115.900001526,12.8000001907
"2005-07-08 09:00:00",22.6299991608,0.291999995708,105.099998474,9.06999969482,8.30000019073,98.0,12.8400001526
"2005-07-08 10:00:00",22.7099990845,0.324000000954,105.599998474,9.10999965668,8.35999965668,261.100006104,13.1999998093
"2005-07-08 11:00:00",22.7700004578,0.314999997616,105.400001526,9.06999969482,8.43999958038,438.200012207,13.25
"2005-07-08 12:00:00",22.8500003815,0.319999992847,105.800003052,9.09000015259,8.52000045776,590.299987793,13.279999733
"2005-07-08 13:00:00",23.0300006866,0.197999998927,106.099998474,9.10000038147,8.57999992371,485.600006104,13.6300001144
"2005-07-08 14:00:00",23.2999992371,0.194999992847,106.0,9.03999996185,8.64000034332,391.100006104,14.1300001144
"2005-07-08 15:00:00",23.5400009155,0.187000006437,106.5,9.03999996185,8.64000034332,268.100006104,14.0900001526
"2005-07-08 16:00:00",23.6100006104,0.192000001669,105.800003052,8.97000026703,8.64999961853,170.5,14.029999733
"2005-07-08 17:00:00",23.6700000763,0.194999992847,105.699996948,8.94999980927,8.68000030518,152.699996948,13.9899997711
"2005-07-08 18:00:00",23.7000007629,0.00200000009499,103.699996948,8.77999973297,8.72000026703,115.900001526,13.0900001526
"2005-07-08 19:00:00",23.5100002289,0.00400000018999,104.300003052,8.86999988556,8.68999958038,79.0,13.0699996948
"2005-07-08 20:00:00",23.3500003815,0.00200000009499,103.800003052,8.85000038147,8.64000034332,63.7999992371,13.0
"2005-07-08 21:00:00",23.1900005341,0.00200000009499,103.5,8.84000015259,8.64999961853,64.9000015259,12.9799995422
"2005-07-08 22:00:00",23.0100002289,0.00200000009499,103.800003052,8.89999961853,8.61999988556,62.2000007629,12.9600000381
"2005-07-08 23:00:00",22.7600002289,0.00200000009499,104.0,8.96000003815,8.61999988556,64.6999969482,12.9300003052
"2005-07-09 00:00:00",22.5699996948,0.00200000009499,104.199996948,9.01000022888,8.60999965668,56.0,12.9099998474
"2005-07-09 01:00:00",22.3400001526,0.00200000009499,104.5,9.07999992371,8.60999965668,46.7000007629,12.8900003433
"2005-07-09 02:00:00",22.0699996948,0.00200000009499,103.699996948,9.06000041962,8.63000011444,41.0,12.8699998856
"2005-07-09 03:00:00",21.8700008392,0.00200000009499,103.900001526,9.10999965668,8.64000034332,32.9000015259,12.8599996567
"2005-07-09 04:00:00",21.6599998474,0.00200000009499,104.0,9.14999961853,8.65999984741,27.6000003815,12.8400001526
"2005-07-09 05:00:00",21.5,0.00200000009499,104.300003052,9.21000003815,8.64999961853,24.3999996185,12.8199996948
"2005-07-09 06:00:00",21.3600006104,0.00200000009499,105.099998474,9.30000019073,8.64999961853,21.8999996185,12.7899999619
"2005-07-09 07:00:00",21.2099990845,0.00200000009499,105.099998474,9.32999992371,8.64000034332,19.8999996185,12.779999733
"2005-07-09 08:00:00",21.2800006866,0.00200000009499,105.5,9.35000038147,8.64000034332,18.8999996185,12.7899999619